CZ-2C DEB

Satellite information

Favourite Embed

Satellite Type and Status

DEBRISIN ORBIT

Key statistics

Satellite CZ-2C DEB at a glance.

Uptime

4095

Days in orbit

Revolutions

≈ 14.3

Per day

Orbit

SSO

Sun Synchronous Orbit

Inclination

98.4

Latest

Satellite identification and parameters

Extended collection of information and parameters for CZ-2C DEB.

Object identification

Identified? True

Debris? True

Object name: CZ-2C DEB

International designator: 2014-059F

Object number (NORAD): 40266

Object ID (CCSDS): 40266

Country: PEOPLES REPUBLIC OF CHINA (PRC)

Current information (Y/N): Y

RCS size: SMALL

Orbital parameters

Period: 100.512 minutes

Inclination: 98.3597 deg

SMA: 7160.986 km

Apoapsis: 900.073 km

Periapsis: 665.628 km

RAAN: 256.5688 deg

Eccentricy: 0.01636966

Argument of periapsis: 56.2821 deg

Mean anomaly: 305.3845 deg

Mean motion: 14.32661402 rev/day

Mean motion (dot): 0.00004983 rev/day2

B* drag term: 0.0015928541 1/REarth

Two-line elements (TLE)

Creation date: Dec. 12, 2025, 10:14 a.m.

Reference frame: TEME

Reference center: EARTH

Epoch: Dec. 12, 2025, 6:56 a.m. UTC

TLE line 0: 0 CZ-2C DEB

TLE line 1: 1 40266U 14059F 25346.28905326 .00004983 00000-0 15929-2 0 9994

TLE line 2: 2 40266 98.3597 256.5688 0163697 56.2821 305.3845 14.32661402581907

Live tracking on map

Real-time ground track for satellite CZ-2C DEB.

In-orbit conjunctions

A list of the most updated potential collisions computed for object CZ-2C DEB.

Target Orbit TCA Probability of collision Miss distance Type
COSMOS 1275 DEB LEO 2025-01-29 18:19:40 0.0009430799 37.0 (m) DEBRIS
SL-8 R/B LEO 2024-12-15 21:34:52 0.0001866271 599.0 (m) ROCKET BODY
METEOR M2-3 DEB SSO 2024-09-05 23:08:56 0.0004966353 683.0 (m) DEBRIS

Associated space launch

CZ-2C DEB was lifted into orbit during the mission ‘Long March 2C | Shijian 11-07’, on board a Long March 2 space rocket.

The launch took place on Sept. 28, 2014, 5:13 a.m. from Launch Area 94 (SLS-2 / 603).

For more information about the launch, click the button.

Launch to space Long March 2C | Shijian 11-07
Long March 2C | Shijian 11-07

Agency: N/A

Status: Launch Successful

Launch date: Sept. 28, 2014, 5:13 a.m. UTC

Rocket: Long March 2

Launch pad: Launch Area 94 (SLS-2 / 603)

Location: Jiuquan Satellite Launch Center, People's Republic of China

...

Latest news about this satellite

There are no fresh news available about this satellite. Check back as we update our databases every day.


Newsletter sign-up

Weekly statistics, charts and insights to help you stay on top of the space industry.